CAPE
0 0 0 0 0 0 0 0 0 0 0 0 0 0 0 0 0 0 0 0 0 0 0 0 0 0 0 1 2 7 12 21 77 130 109 106 57 66 77 71 12 45 31 88 108 178 190 227 395
0 0 0 0 0 0 0 0 0 0 0 0 0 0 0 0 0 0 0 0 0 0 0 0 0 0 1 3 5 5 12 11 59 49 66 113 38 50 30 73 30 60 44 48 58 139 215 210 293
0 0 0 0 0 0 0 0 0 0 0 0 0 0 0 0 0 0 0 0 0 0 0 0 0 0 3 4 16 14 9 14 18 19 25 46 65 76 47 14 28 54 45 17 14 7 37 201 272
0 0 0 0 0 0 0 0 0 0 0 0 0 0 0 0 0 0 0 0 0 0 0 0 0 0 2 6 2 3 11 20 38 29 26 17 17 14 30 23 23 12 66 26 16 11 41 94 199
0 0 0 0 0 0 0 0 0 0 0 0 0 0 0 0 0 0 0 0 0 0 0 0 0 0 0 5 2 5 11 19 16 38 31 18 15 14 12 15 13 13 16 31 25 14 15 0 161
0 0 0 0 0 0 0 0 0 0 0 0 0 0 0 0 0 0 0 0 0 0 0 0 0 0 0 2 6 4 6 7 16 31 44 31 20 16 16 12 11 11 13 10 22 27 12 3 3
0 0 0 0 0 0 0 0 0 0 0 0 0 0 0 0 0 0 0 0 0 0 0 0 0 0 0 3 0 6 5 5 11 12 9 14 22 18 11 11 7 9 8 9 6 18 11 4 0
0 0 0 0 0 0 0 0 0 0 0 0 0 0 0 0 0 0 0 0 0 0 0 0 0 0 0 0 0 2 9 1 3 3 2 3 5 14 6 9 6 4 8 4 14 24 7 4 1
0 0 0 0 0 0 0 0 0 0 0 0 0 0 0 0 0 0 0 0 0 0 0 0 0 0 0 4 3 1 6 2 2 2 0 2 3 4 2 1 6 4 2 3 8 8 5 3 1
0 0 0 0 0 0 0 0 0 0 0 0 0 0 0 0 0 0 0 0 0 0 0 0 0 0 0 6 2 1 10 2 2 1 1 3 3 3 3 2 0 1 0 0 5 4 3 1 0
0 0 0 0 0 0 0 0 0 0 0 0 0 0 0 0 0 0 0 0 0 0 0 0 0 0 0 0 3 1 5 4 0 1 1 2 3 3 4 4 4 0 0 0 1 1 1 1 0
0 0 0 0 0 0 0 0 0 0 0 0 0 0 0 0 0 0 0 0 0 0 0 0 0 0 0 0 3 7 3 1 3 2 4 1 1 2 3 4 5 3 1 0 4 3 1 1 0
0 0 0 0 0 0 0 0 0 0 0 0 0 0 0 0 0 0 0 0 0 0 0 0 0 0 0 0 0 0 0 0 0 0 0 3 4 2 3 3 4 5 2 3 0 1 1 0 1
0 0 0 0 0 0 0 0 0 0 0 0 0 0 0 0 0 0 0 0 0 0 0 0 0 0 0 0 0 0 0 0 0 0 0 0 2 1 2 2 3 3 4 2 2 1 1 1 1
0 0 0 0 0 0 0 0 0 0 0 0 0 0 0 0 0 0 0 0 0 0 0 0 0 0 0 0 0 0 0 0 0 0 0 0 0 2 2 2 3 3 3 3 2 2 0 0 0
0 0 0 0 0 0 0 0 0 0 0 0 0 0 0 0 0 0 0 0 0 0 0 0 0 0 0 0 0 0 0 0 0 0 0 0 0 0 2 2 2 3 3 3 4 2 1 0 0
0 0 0 0 0 0 0 0 0 0 0 0 0 0 0 0 0 0 0 0 0 0 0 0 0 0 0 0 0 0 0 0 0 0 0 0 0 0 0 3 3 2 2 2 3 3 1 0 1
0 0 0 0 0 0 0 0 0 0 0 0 0 0 0 0 0 0 0 0 0 0 0 0 0 0 0 0 0 0 0 0 0 0 0 0 0 0 0 1 2 1 2 3 2 2 0 1 1
0 0 0 0 0 0 0 0 0 0 0 0 0 0 0 0 0 0 0 0 0 0 0 0 0 0 0 0 0 0 0 0 0 0 0 0 0 0 0 0 2 7 1 2 2 4 0 0 1
0 0 0 0 0 0 0 0 0 0 0 0 0 0 0 0 0 0 0 0 0 0 0 0 0 0 0 0 0 0 0 0 0 0 0 0 0 0 0 0 0 4 3 2 2 3 2 0 1
0 0 0 0 0 0 0 0 0 0 0 0 0 0 0 0 0 0 0 0 0 0 0 0 0 0 0 0 0 0 0 0 0 0 0 0 0 0 0 0 0 0 3 4 2 4 4 4 1
0 0 0 0 0 0 0 0 0 0 0 0 0 0 0 0 0 0 0 0 0 0 0 0 0 0 0 0 0 0 0 0 0 0 0 0 0 0 0 0 0 0 0 2 5 4 5 4 4
0 0 0 0 0 0 0 0 0 0 0 0 0 0 0 0 0 0 0 0 0 0 0 0 0 0 0 0 0 0 0 0 0 0 0 0 0 0 0 0 0 0 0 0 2 5 3 4 3
0 0 0 0 0 0 0 0 0 0 0 0 0 0 0 0 0 0 0 0 0 0 0 0 0 0 0 0 0 0 0 0 0 0 0 0 0 0 0 0 0 0 0 0 0 4 3 2 3
0 0 0 0 0 0 0 0 0 0 0 0 0 0 0 0 0 0 0 0 0 0 0 0 0 0 0 0 0 0 0 0 0 0 0 0 0 0 0 0 0 0 0 0 0 0 0 3 2
0 0 0 0 0 0 0 0 0 0 0 0 0 0 0 0 0 0 0 0 0 0 0 0 0 0 0 0 0 0 0 0 0 0 0 0 0 0 0 0 0 0 0 0 0 0 1 1 1
0 0 0 0 0 0 0 0 0 0 0 0 0 0 0 0 0 0 0 0 0 0 0 0 0 0 0 0 0 0 0 0 0 0 0 0 0 0 0 0 0 0 0 0 0 0 0 0 3
0 0 0 0 0 0 0 0 0 0 0 0 0 0 0 0 0 0 0 0 0 0 0 0 0 0 0 0 0 0 0 0 0 0 0 0 0 0 0 0 0 0 0 0 0 0 0 0 0
0 0 0 0 0 0 0 0 0 0 0 0 0 0 0 0 0 0 0 0 0 0 0 0 0 0 0 0 0 0 0 0 0 0 0 0 0 0 0 0 0 0 0 0 0 0 0 0 0
0 0 0 0 0 0 0 0 0 0 0 0 0 0 0 0 0 0 0 0 0 0 0 0 0 0 0 0 0 0 0 0 0 0 0 0 0 0 0 0 0 0 0 0 0 0 0 0 0
CIN
0 0 0 0 0 0 0 0 0 0 0 0 0 0 0 0 0 0 0 0 0 0 0 0 0 0 0 0 0 0 0 -1 -5 0 -2 -13 0 0 0 0 -2 0 -23 -2 -1 0 0 0 -1
0 0 0 0 0 0 0 0 0 0 0 0 0 0 0 0 0 0 0 0 0 0 0 0 0 0 0 0 0 0 0 0 -4 -9 -14 -30 -7 -2 -6 0 -12 -5 0 -18 -10 0 0 0 -1
0 0 0 0 0 0 0 0 0 0 0 0 0 0 0 0 0 0 0 0 0 0 0 0 0 0 0 -1 0 0 0 0 0 0 0 0 -34 -20 -7 -12 -5 -4 -3 -13 -8 -5 -19 -1 -1
0 0 0 0 0 0 0 0 0 0 0 0 0 0 0 0 0 0 0 0 0 0 0 0 0 0 0 -1 0 -1 0 0 0 0 0 0 0 0 -5 -26 -16 0 0 -1 -3 0 -6 -14 0
0 0 0 0 0 0 0 0 0 0 0 0 0 0 0 0 0 0 0 0 0 0 0 0 0 0 0 -1 0 0 0 0 0 0 0 0 0 0 0 0 -55 0 -2 -17 -7 -1 -42 0 -1
0 0 0 0 0 0 0 0 0 0 0 0 0 0 0 0 0 0 0 0 0 0 0 0 0 0 0 -1 0 0 0 0 0 0 0 0 0 0 0 0 0 0 0 0 0 -5 -8 0 -28
0 0 0 0 0 0 0 0 0 0 0 0 0 0 0 0 0 0 0 0 0 0 0 0 0 0 0 0 0 0 0 0 0 0 0 0 0 0 0 0 0 0 0 0 0 -8 0 0 0
0 0 0 0 0 0 0 0 0 0 0 0 0 0 0 0 0 0 0 0 0 0 0 0 0 0 0 0 0 0 0 0 0 0 0 0 -10 0 -1 0 0 0 0 0 0 0 0 0 0
0 0 0 0 0 0 0 0 0 0 0 0 0 0 0 0 0 0 0 0 0 0 0 0 0 0 0 0 0 -1 -2 0 0 0 0 0 0 0 0 0 0 0 0 0 0 0 0 0 0
0 0 0 0 0 0 0 0 0 0 0 0 0 0 0 0 0 0 0 0 0 0 0 0 0 0 0 0 0 -1 -2 0 0 0 0 0 0 0 0 0 0 0 0 0 0 0 0 0 0
0 0 0 0 0 0 0 0 0 0 0 0 0 0 0 0 0 0 0 0 0 0 0 0 0 0 0 0 0 -2 0 0 0 0 0 0 0 0 0 0 0 0 0 0 0 0 0 0 0
0 0 0 0 0 0 0 0 0 0 0 0 0 0 0 0 0 0 0 0 0 0 0 0 0 0 0 0 0 0 0 0 0 0 0 0 0 0 0 0 0 0 0 0 0 0 0 0 0
0 0 0 0 0 0 0 0 0 0 0 0 0 0 0 0 0 0 0 0 0 0 0 0 0 0 0 0 0 0 0 0 0 0 0 0 0 0 0 0 0 0 0 0 0 0 0 0 0
0 0 0 0 0 0 0 0 0 0 0 0 0 0 0 0 0 0 0 0 0 0 0 0 0 0 0 0 0 0 0 0 0 0 0 0 0 0 0 0 0 0 0 0 0 0 0 0 0
0 0 0 0 0 0 0 0 0 0 0 0 0 0 0 0 0 0 0 0 0 0 0 0 0 0 0 0 0 0 0 0 0 0 0 0 0 0 0 0 0 0 0 0 0 0 0 0 0
0 0 0 0 0 0 0 0 0 0 0 0 0 0 0 0 0 0 0 0 0 0 0 0 0 0 0 0 0 0 0 0 0 0 0 0 0 0 0 0 0 0 0 0 0 0 0 0 0
0 0 0 0 0 0 0 0 0 0 0 0 0 0 0 0 0 0 0 0 0 0 0 0 0 0 0 0 0 0 0 0 0 0 0 0 0 0 0 0 0 0 0 0 0 0 0 0 0
0 0 0 0 0 0 0 0 0 0 0 0 0 0 0 0 0 0 0 0 0 0 0 0 0 0 0 0 0 0 0 0 0 0 0 0 0 0 0 0 0 0 0 0 0 0 0 0 0
0 0 0 0 0 0 0 0 0 0 0 0 0 0 0 0 0 0 0 0 0 0 0 0 0 0 0 0 0 0 0 0 0 0 0 0 0 0 0 0 0 0 0 0 0 0 0 0 0
0 0 0 0 0 0 0 0 0 0 0 0 0 0 0 0 0 0 0 0 0 0 0 0 0 0 0 0 0 0 0 0 0 0 0 0 0 0 0 0 0 0 0 0 0 0 0 0 0
0 0 0 0 0 0 0 0 0 0 0 0 0 0 0 0 0 0 0 0 0 0 0 0 0 0 0 0 0 0 0 0 0 0 0 0 0 0 0 0 0 0 0 0 0 0 0 0 -3
0 0 0 0 0 0 0 0 0 0 0 0 0 0 0 0 0 0 0 0 0 0 0 0 0 0 0 0 0 0 0 0 0 0 0 0 0 0 0 0 0 0 0 0 0 0 0 0 0
0 0 0 0 0 0 0 0 0 0 0 0 0 0 0 0 0 0 0 0 0 0 0 0 0 0 0 0 0 0 0 0 0 0 0 0 0 0 0 0 0 0 0 0 0 0 0 0 0
0 0 0 0 0 0 0 0 0 0 0 0 0 0 0 0 0 0 0 0 0 0 0 0 0 0 0 0 0 0 0 0 0 0 0 0 0 0 0 0 0 0 0 0 -1 0 0 0 0
0 0 0 0 0 0 0 0 0 0 0 0 0 0 0 0 0 0 0 0 0 0 0 0 0 0 0 0 0 0 0 0 0 0 0 0 0 0 0 0 0 0 0 0 0 0 0 0 0
0 0 0 0 0 0 0 0 0 0 0 0 0 0 0 0 0 0 0 0 0 0 0 0 0 0 0 0 0 0 0 0 0 0 0 0 0 0 0 0 0 0 0 0 0 0 0 0 0
0 0 0 0 0 0 0 0 0 0 0 0 0 0 0 0 0 0 0 0 0 0 0 0 0 0 0 0 0 0 0 0 0 0 0 0 0 0 0 0 0 0 0 0 0 0 0 0 0
0 0 0 0 0 0 0 0 0 0 0 0 0 0 0 0 0 0 0 0 0 0 0 0 0 0 0 0 0 0 0 0 0 0 0 0 0 0 0 0 0 0 0 0 0 0 0 0 0
0 0 0 0 0 0 0 0 0 0 0 0 0 0 0 0 0 0 0 0 0 0 0 0 0 0 0 0 0 0 0 0 0 0 0 0 0 0 0 0 0 0 0 0 0 0 0 0 0
0 0 0 0 0 0 0 0 0 0 0 0 0 0 0 0 0 0 0 0 0 0 0 0 0 0 0 0 0 0 0 0 0 0 0 0 0 0 0 0 0 0 0 0 0 0 0 0 0
Wind_Speed
12 12 14 16 22 25 24 23 25 23 24 27 31 32 33 31 29 23 25 32 26 28 39 40 39 39 39 41 41 40 40 39 39 38 39 38 38 38 37 35 34 34 32 31 31 34 36 36 34
14 15 16 16 21 23 23 23 24 24 24 24 28 28 29 31 29 22 21 32 36 38 39 39 38 37 37 41 42 41 39 38 40 40 39 39 39 38 38 36 35 35 33 32 33 34 37 38 36
15 15 17 18 22 20 21 22 22 23 20 17 20 26 23 14 30 21 32 31 37 38 39 40 39 40 42 42 43 42 40 40 41 40 40 40 39 39 39 37 36 36 35 33 34 35 35 40 38
16 16 19 22 22 23 21 20 20 22 24 25 22 24 24 29 24 28 30 35 37 38 39 40 40 41 42 42 43 42 42 40 41 41 41 41 41 40 39 39 39 37 36 35 35 36 36 37 41
16 17 18 20 21 20 21 21 20 20 22 24 22 23 23 29 29 31 33 35 36 38 39 40 41 42 42 42 44 43 42 42 42 41 40 41 41 40 40 39 39 38 37 36 36 36 36 37 40
14 17 17 17 18 18 19 20 20 21 21 22 22 21 23 27 30 31 32 34 35 37 39 40 40 42 42 42 45 43 44 43 43 42 41 42 41 40 41 40 39 38 38 38 37 35 34 35 40
13 13 15 15 16 16 17 19 20 20 20 22 24 19 22 30 30 29 31 33 35 37 39 40 41 42 40 39 44 44 44 45 46 45 45 43 40 41 41 40 39 38 38 38 37 37 35 34 35
15 15 15 14 13 15 15 17 20 18 20 17 23 21 21 28 28 29 30 33 35 38 40 41 41 42 42 39 43 43 45 46 46 46 46 44 41 41 42 40 39 39 39 38 37 36 35 33 33
15 13 12 12 12 13 14 15 18 20 21 23 21 22 22 25 27 29 30 34 36 38 40 42 42 42 43 41 43 43 43 46 46 46 46 43 42 40 40 40 40 39 38 38 37 36 34 31 29
16 12 13 15 13 12 13 14 15 17 20 21 21 22 23 25 27 29 32 34 37 40 41 43 44 44 44 40 43 43 43 44 44 45 47 44 42 41 40 39 39 38 37 36 35 34 32 28 25
17 12 13 16 15 13 14 14 13 15 19 20 20 21 22 24 27 29 31 33 35 37 40 42 43 43 44 43 43 43 44 44 43 44 46 44 42 41 40 38 38 37 36 35 34 32 30 27 23
13 13 12 14 15 13 12 13 16 16 16 17 19 20 22 24 26 28 30 32 35 38 40 42 43 43 43 44 42 43 44 44 45 45 45 44 44 42 41 39 39 37 36 35 33 31 29 27 22
12 12 13 12 13 13 13 13 13 15 15 16 18 19 21 22 24 27 29 31 34 37 39 41 42 43 42 42 42 44 44 45 43 45 46 46 44 43 41 40 38 37 36 34 33 31 29 26 23
9 12 12 12 11 12 12 12 14 13 13 15 16 17 19 21 24 26 29 32 34 35 38 40 41 43 43 42 43 44 44 44 43 43 45 45 44 44 41 40 38 37 36 35 33 31 29 25 23
12 11 12 11 9 10 11 14 15 11 10 12 13 15 18 20 23 25 27 30 33 35 36 39 40 41 42 43 43 43 44 43 44 45 45 45 46 45 43 40 39 37 37 35 32 30 28 26 23
11 11 13 10 7 9 13 13 13 10 8 10 11 13 16 19 21 23 26 29 32 34 35 37 39 41 42 43 42 42 41 42 44 44 44 45 45 44 43 42 39 38 37 34 33 31 30 28 26
10 15 11 11 8 11 6 14 10 7 7 9 9 11 13 16 19 22 25 28 31 33 34 36 38 41 42 41 41 41 40 40 41 43 45 46 45 44 43 42 40 38 36 34 34 32 30 28 26
12 13 11 11 9 7 5 12 9 6 6 7 9 10 12 15 18 21 24 26 29 31 33 35 37 40 40 39 39 39 39 39 40 41 42 44 45 45 43 41 40 37 35 34 33 32 29 28 27
14 11 11 14 13 11 8 10 8 6 6 7 8 9 11 14 16 19 22 25 27 30 32 34 37 39 39 39 40 40 39 37 38 39 41 44 45 46 45 41 40 38 35 33 33 32 30 29 26
14 9 13 16 14 15 12 11 8 6 6 6 7 8 10 14 16 20 22 24 27 29 31 33 36 37 37 38 37 37 36 35 37 37 39 41 43 44 44 42 40 37 35 33 32 31 31 29 27
16 10 10 16 12 15 16 16 9 8 9 8 8 8 10 12 16 19 22 25 27 29 31 32 35 36 36 37 36 36 34 34 36 40 40 41 41 42 43 43 40 36 34 32 31 30 29 29 27
14 17 12 13 13 20 11 23 11 8 9 10 8 9 9 10 13 17 21 24 26 28 30 31 33 35 35 36 37 38 37 38 38 39 39 40 39 40 40 42 40 36 34 32 31 30 29 28 27
13 12 13 14 17 21 16 21 21 7 11 9 8 6 6 9 12 16 20 22 24 27 29 31 32 33 34 35 36 36 36 36 36 38 40 40 38 39 40 42 41 36 34 33 31 31 29 28 27
6 10 15 18 20 22 18 16 20 13 9 10 6 5 5 8 11 15 18 20 24 27 29 30 31 32 33 34 35 36 36 37 38 40 40 40 38 38 39 41 40 36 34 32 32 30 28 28 27
14 11 18 22 20 20 20 16 16 13 15 9 6 4 5 7 10 14 17 20 24 27 28 29 30 32 33 34 34 35 35 36 37 38 38 39 39 39 39 39 40 37 33 33 32 31 29 29 28
6 13 16 22 21 21 18 18 20 22 13 12 5 3 5 7 10 13 15 19 22 26 27 28 29 31 32 32 33 33 34 35 36 37 37 37 36 36 35 36 39 37 34 33 32 30 29 28 28
9 12 16 21 23 26 20 22 23 16 14 14 7 4 5 6 9 11 14 17 21 24 26 26 28 30 30 31 32 32 33 35 36 36 36 35 35 34 35 34 39 37 34 31 31 30 30 29 27
12 8 16 17 20 24 22 20 18 16 13 10 8 6 6 6 8 10 12 16 20 22 23 25 26 29 29 30 31 31 33 34 35 35 36 35 33 34 35 32 35 38 35 31 30 31 30 30 29
11 14 15 18 19 24 27 22 17 16 11 8 7 6 5 5 7 9 11 15 18 20 22 24 26 28 29 29 30 31 32 34 34 34 34 31 29 30 32 31 31 37 37 32 30 29 30 30 30
14 15 15 21 23 20 24 25 21 23 12 8 7 6 5 5 6 7 9 13 17 19 21 24 25 27 28 29 29 30 32 33 34 34 32 29 28 27 27 29 29 33 35 33 31 29 29 29 30
Wind_Direction
143 144 114 87 67 61 65 69 63 76 67 65 56 58 51 36 41 57 19 337 319 324 350 356 336 336 337 345 356 353 345 338 340 340 342 348 347 348 343 328 319 309 297 291 289 281 272 271 269
117 104 89 86 71 66 65 57 51 60 73 73 55 57 46 41 13 60 44 333 8 359 355 354 336 334 334 342 353 356 2 359 352 349 340 338 341 342 352 332 331 318 305 296 290 290 276 270 268
115 94 65 60 52 65 70 58 58 53 75 86 75 38 57 74 22 51 9 18 3 359 357 354 342 344 350 355 354 355 1 358 355 352 349 342 338 335 341 344 329 328 315 303 297 292 291 271 269
81 77 45 43 50 44 60 59 63 58 45 41 57 47 58 23 43 25 21 1 359 357 0 354 347 348 354 356 357 356 357 359 356 354 350 344 339 330 332 333 329 326 321 311 302 296 292 285 267
76 54 41 51 53 52 52 52 49 46 35 16 38 41 48 18 17 11 9 6 5 4 7 3 355 355 1 3 360 2 0 356 355 355 351 347 343 338 332 330 329 330 317 316 307 300 296 291 273
52 46 54 51 56 51 45 47 50 46 35 42 43 39 33 19 13 14 14 12 13 12 10 11 12 9 8 8 4 5 1 359 356 354 353 347 344 340 335 331 325 329 327 317 311 305 302 300 283
35 51 49 60 58 54 42 34 35 38 33 21 4 32 25 9 13 19 19 19 17 12 11 12 14 12 12 12 7 5 3 0 356 353 349 347 343 339 336 334 330 324 325 322 310 309 301 299 301
18 24 57 61 63 46 49 38 23 36 24 39 12 18 19 8 14 18 20 16 15 13 14 12 10 9 6 9 5 5 2 357 358 355 351 347 343 338 333 332 329 325 323 324 317 311 307 300 294
9 35 33 62 54 51 54 41 33 36 33 23 35 31 28 18 18 18 17 10 10 10 9 8 6 4 3 6 3 3 3 360 357 356 353 348 345 340 334 328 327 325 323 323 326 319 311 305 298
355 25 21 23 54 68 63 49 52 43 37 33 31 32 27 22 18 14 8 7 5 4 3 2 2 2 2 5 2 1 0 360 359 356 351 349 346 341 335 330 325 325 324 324 327 329 319 307 306
342 15 39 27 46 60 51 48 34 38 16 19 23 27 24 20 15 15 12 10 9 8 7 5 2 2 2 3 3 3 1 360 358 354 350 346 343 342 337 331 326 322 323 323 325 328 327 312 304
41 26 21 33 49 55 43 24 13 20 22 29 27 27 23 19 19 16 12 9 9 7 5 5 3 2 3 4 5 3 2 1 359 357 353 346 340 336 334 329 324 320 319 316 320 321 328 319 306
31 29 25 42 44 45 39 22 22 24 29 31 24 23 22 22 21 17 12 9 9 7 6 4 5 4 3 5 4 4 2 2 1 359 356 350 343 336 330 325 322 318 313 313 314 316 317 315 307
40 44 37 32 36 36 32 41 10 21 25 24 25 24 21 20 19 14 9 9 7 8 6 5 5 5 4 4 5 5 5 4 2 360 356 351 347 341 334 323 319 319 312 307 308 310 311 315 312
56 28 14 23 36 32 38 0 356 14 31 29 28 24 21 18 17 16 12 9 7 6 6 5 5 6 5 5 5 4 4 4 1 358 355 352 349 343 337 330 317 313 308 307 304 304 307 305 307
360 3 342 352 14 11 354 350 359 23 31 28 29 23 16 15 15 17 14 10 7 6 7 6 7 5 5 3 4 4 5 4 360 358 355 354 351 348 341 334 324 312 307 306 302 300 298 300 297
336 329 335 341 346 352 354 348 2 26 23 18 23 21 16 14 15 14 14 11 8 7 7 6 6 5 5 5 6 6 5 4 3 359 356 352 350 347 345 339 331 320 309 307 303 297 295 295 296
323 327 332 332 342 342 331 338 359 7 9 12 14 13 10 7 9 10 12 11 10 9 8 7 7 7 7 8 8 8 7 6 5 3 1 356 351 348 345 341 335 329 317 306 305 298 293 290 292
329 329 326 333 338 334 327 332 341 347 348 354 360 2 3 2 8 9 10 10 10 10 9 7 6 7 8 8 8 7 7 7 6 6 4 1 357 353 347 344 337 331 326 313 306 302 293 288 290
325 328 326 329 332 334 333 325 329 329 323 331 340 350 356 360 4 6 8 8 9 9 8 7 7 8 10 10 10 9 8 8 6 5 6 4 3 0 353 345 339 330 325 321 309 309 299 286 284
320 320 320 327 334 330 332 322 308 313 321 323 332 341 347 352 357 3 5 6 7 8 7 6 8 9 11 10 11 10 10 8 5 2 1 3 5 3 358 347 342 332 326 321 317 312 307 295 286
313 321 327 329 330 323 335 324 325 310 305 307 305 320 333 346 356 2 4 5 8 8 8 8 9 11 11 12 10 9 8 6 4 1 1 2 4 4 5 354 346 333 328 322 321 317 313 307 294
315 329 326 326 321 322 323 323 332 322 304 294 299 300 322 344 355 1 3 7 11 9 8 9 11 12 12 12 12 11 9 8 6 4 2 3 5 5 4 355 348 334 328 327 319 321 317 317 299
344 334 328 326 322 315 316 314 330 333 303 315 297 290 321 344 355 3 7 10 10 9 8 10 12 13 13 13 12 12 10 7 5 2 3 4 4 5 4 357 351 332 327 325 325 320 315 314 316
314 316 316 316 316 314 328 321 317 325 335 322 297 295 332 351 354 2 4 6 6 7 7 11 13 12 13 12 12 12 11 9 7 5 4 4 2 2 3 1 345 332 322 325 327 325 318 314 313
292 307 311 313 316 320 327 318 332 335 330 336 319 320 341 348 355 359 4 6 6 5 8 11 13 11 13 13 12 13 12 10 8 6 6 6 4 5 8 6 342 337 324 323 327 324 322 316 315
310 299 314 316 319 317 317 322 323 330 334 337 334 328 329 343 352 357 4 6 6 5 8 12 11 11 13 13 12 12 11 9 6 4 5 5 3 5 6 9 348 349 324 319 323 323 324 321 315
313 325 313 313 317 316 323 321 318 330 320 314 308 308 322 337 347 355 2 4 5 6 12 14 15 12 13 13 12 12 10 8 5 3 1 2 3 3 1 8 2 344 329 317 319 322 324 326 320
300 302 310 314 312 314 318 320 334 324 310 294 283 294 307 320 336 349 359 3 5 10 11 12 12 12 12 12 11 11 9 6 5 2 1 2 3 4 1 5 7 342 343 319 316 317 322 326 324
295 296 292 300 309 310 314 306 327 328 320 299 291 291 299 314 331 347 357 1 4 8 10 11 13 12 13 10 11 10 8 7 6 4 2 1 359 359 1 0 3 358 335 329 318 314 318 322 329